Flag for Germany Weather past 2 weeks in Laatzen, Lower Saxony, Germany

Now
56 °F

Passing clouds.


Feels Like: 55 °F
Forecast: 47 / 69 °F
Wind: 6 mph from West

Location: Hannover

Current Time: Aug 20, 2014 at 10:55:28 AM

Latest Report: Aug 20, 2014 at 10:00 AM


Visibility: 25 mi

Pressure: 29.95 "Hg

Humidity: 78%

Dew point: 50 °F

Location of LaatzenLocation

Historic Weather in Laatzen — Graph

°F

Laatzen temperature yesterday

Maximum temperature yesterday: 59 °F (at 2:00 PM)
Minimum temperature yesterday: 52 °F (at 7:00 AM)
Average temperature yesterday: 55 °F

Past Weeks' High & Low Weather Summary

 TemperatureHumidityPressure
High77 °F (Aug 8, 3:00 PM)100% (Aug 6, 5:00 AM)30.12 "Hg (Aug 6, 5:00 AM)
Low49 °F (Aug 20, 6:00 AM)39% (Aug 11, 7:00 PM)29.60 "Hg (Aug 18, 2:00 PM)
Average62 °F77%29.85 "Hg
* Reported Aug 5 9:00 AM — Aug 20 9:00 AM, Laatzen, Weather by CustomWeather, © 2014

Note: Actual official high and low records may vary slightly from our data, if they occured in-between our weather recording intervals... More about our weather records

Advertising

Laatzen weather history for previous 24 hours

 ConditionsComfort  
Time TempWeatherWind HumidityBarometerVisibility
9:00 AM
Aug 20
54 °FPassing clouds.5 mph82%29.93 "Hg25 mi
8:00 AM51 °FPassing clouds.6 mph86%29.93 "Hg25 mi
7:00 AM50 °FPassing clouds.5 mph89%29.92 "Hg25 mi
6:00 AM49 °FPassing clouds.6 mph89%29.90 "Hg12 mi
4:00 AM50 °FPassing clouds.7 mph86%29.89 "Hg16 mi
3:00 AM51 °FPassing clouds.6 mph86%29.89 "Hg16 mi
2:00 AM51 °FPassing clouds.6 mph88%29.88 "Hg12 mi
1:00 AM51 °FPassing clouds.6 mph86%29.88 "Hg16 mi
12:00 AM52 °FPassing clouds.6 mph85%29.87 "Hg16 mi
11:00 PM
Aug 19
53 °FPassing clouds.6 mph81%29.86 "Hg11 mi
10:00 PM54 °FPassing clouds.7 mph79%29.85 "Hg12 mi
9:00 PM55 °FPassing clouds.8 mph73%29.83 "Hg19 mi
8:00 PM57 °FPartly sunny.5 mph69%29.80 "Hg25 mi
7:00 PM57 °FOvercast.7 mph80%29.80 "Hg22 mi
6:00 PM58 °FScattered clouds.6 mph82%29.80 "Hg22 mi
4:00 PM55 °FOvercast.6 mph92%29.79 "Hg25 mi
3:00 PM56 °FOvercast.6 mph87%29.79 "Hg9 mi
2:00 PM59 °FLight rain. Overcast.6 mph84%29.78 "Hg12 mi
1:00 PM58 °FOvercast.6 mph86%29.79 "Hg14 mi
12:00 PM57 °FOvercast.6 mph83%29.80 "Hg14 mi
10:00 AM57 °FOvercast.6 mph83%29.80 "Hg9 mi
Weather by CustomWeather, © 2014

See weather overviewHow to use our weather pages